Flag for France Weather past 2 weeks in Besançon, France

Now
97 °F

Passing clouds.


Feels Like: 99 °F
Forecast: 62 / 74 °F
Wind: 6 mph from Northwest

Location: Dole Tavaux

Current Time: Jul 7, 2015 at 4:03:50 PM

Latest Report: Jul 7, 2015 at 3:30 PM


Visibility: N/A

Pressure: 29.83 "Hg

Humidity: 34%

Dew point: 64 °F

Location of BesançonLocation

Historic Weather in Besançon — Graph

°F

Besançon temperature yesterday

Maximum temperature yesterday: 91 °F (at 5:30 PM)
Minimum temperature yesterday: 66 °F (at 5:30 AM)
Average temperature yesterday: 80 °F

Past Weeks' High & Low Weather Summary

 TemperatureHumidityPressure
High99 °F (Jul 3, 4:30 PM)100% (Jun 23, 2:00 AM)30.21 "Hg (Jun 23, 2:00 AM)
Low46 °F (Jun 24, 4:00 AM)22% (Jul 4, 5:00 PM)29.80 "Hg (Jun 22, 6:30 PM)
Average75 °F57%30.09 "Hg
* Reported Jun 22 3:00 PM — Jul 7 3:00 PM, Besançon, Weather by CustomWeather, © 2015

Note: Actual official high and low records may vary slightly from our data, if they occured in-between our weather recording intervals... More about our weather records

Advertising

Besançon weather history for previous 24 hours

 ConditionsComfort  
Time TempWeatherWind HumidityBarometerVisibility
3:00 PM
Tue, Jul 7
97 °FSunny.6 mph34%29.83 "Hg10 mi
2:30 PM95 °FPassing clouds.6 mph34%29.86 "HgN/A
2:00 PM95 °FSunny.5 mph34%29.86 "Hg10 mi
1:30 PM93 °FPassing clouds.7 mph36%29.89 "HgN/A
1:00 PM93 °FPassing clouds.6 mph39%29.89 "HgN/A
12:30 PM91 °FPassing clouds.10 mph41%29.92 "HgN/A
12:00 PM91 °FPassing clouds.12 mph41%29.92 "HgN/A
11:30 AM90 °FPassing clouds.12 mph46%29.92 "HgN/A
11:00 AM88 °FSunny.14 mph49%29.92 "Hg10 mi
10:30 AM86 °FWarm.12 mph52%29.95 "HgN/A
10:00 AM82 °FPassing clouds.9 mph58%29.95 "HgN/A
9:30 AM81 °FPassing clouds.8 mph66%29.95 "HgN/A
9:00 AM79 °FSunny.8 mph65%29.95 "Hg10 mi
8:30 AM77 °FPassing clouds.8 mph65%29.95 "HgN/A
8:00 AM75 °FPassing clouds.5 mph65%29.95 "HgN/A
7:30 AM72 °FPassing clouds.3 mph78%29.95 "HgN/A
7:00 AM68 °FClear.3 mph83%29.95 "Hg10 mi
6:30 AM66 °FClear.3 mph88%29.95 "Hg10 mi
6:00 AM66 °FClear.2 mph88%29.95 "Hg10 mi
5:30 AM66 °FClear.2 mph88%29.95 "Hg10 mi
5:00 AM66 °FClear.2 mph88%29.95 "Hg10 mi
4:30 AM68 °FClear.No wind83%29.95 "Hg10 mi
4:00 AM70 °FClear.No wind78%29.95 "Hg10 mi
3:30 AM70 °FClear.1 mph78%29.95 "Hg10 mi
3:00 AM70 °FClear.2 mph78%29.98 "Hg10 mi
2:30 AM70 °FClear.2 mph73%29.98 "Hg10 mi
2:00 AM72 °FClear.No wind73%29.98 "Hg10 mi
1:30 AM72 °FClear.5 mph69%29.98 "Hg10 mi
1:00 AM72 °FClear.5 mph69%29.98 "Hg10 mi
12:30 AM73 °FClear.5 mph69%29.98 "Hg10 mi
12:00 AM73 °FClear.6 mph65%30.01 "Hg10 mi
11:00 PM
Mon, Jul 6
73 °FSunny.5 mph61%30.01 "Hg10 mi
10:30 PM75 °FSunny.5 mph61%30.01 "Hg10 mi
10:00 PM77 °FSunny.3 mph57%30.01 "Hg10 mi
9:30 PM79 °FSunny.5 mph54%30.01 "Hg10 mi
9:00 PM84 °FSunny.6 mph45%30.01 "Hg10 mi
8:30 PM86 °FSunny.6 mph40%30.01 "Hg10 mi
8:00 PM90 °FSunny.8 mph29%30.01 "Hg10 mi
7:30 PM90 °FPassing clouds.7 mph29%30.04 "HgN/A
7:00 PM90 °FPassing clouds.6 mph31%30.04 "HgN/A
6:30 PM91 °FPassing clouds.6 mph30%30.04 "HgN/A
6:00 PM90 °FPassing clouds.6 mph33%30.04 "HgN/A
5:30 PM91 °FSunny.5 mph32%30.07 "Hg10 mi
5:00 PM90 °FPassing clouds.7 mph33%30.07 "HgN/A
4:30 PM90 °FSunny.5 mph36%30.07 "Hg10 mi
4:00 PM90 °FPassing clouds.7 mph36%30.09 "HgN/A
Weather by CustomWeather, © 2015

See weather overviewHow to use our weather pages